Regional Weather Roundup
Issued by NWS

Home | Current Version | Previous Version | Graphics & Text | Print | Product List | Glossary On
Versions: 1 2 3 4 5 6 7 8 9 10 11 12 13 14 15 16 17 18 19 20 21 22 23 24 25 26 27 28 29 30 31 32 33 34 35 36 37 38 39 40 41 42 43 44 45 46 47 48 49 50
000
ASUS43 KMPX 221101
RWRMN
WEATHER ROUNDUP FOR MINNESOTA
NATIONAL WEATHER SERVICE TWIN CITIES/CHANHASSEN MN
600 AM CDT FRI SEP 22 2017


NOTE: "FAIR" INDICATES FEW OR NO CLOUDS BELOW 12,000 FEET WITH NO
SIGNIFICANT WEATHER AND/OR OBSTRUCTIONS TO VISIBILITY. N/A MEANS
CURRENT SKY AND/OR WEATHER CONDITIONS ARE NOT AVAILABLE.

MNZ060>063-068>070-221200-
   Twin Cities Metro

CITY           SKY/WX    TMP DP  RH WIND       PRES   REMARKS
TWIN CITIES    PTCLDY    73  70  90 SE12      29.82F
ST PAUL        CLEAR     73  70  90 SE15G22   29.82F
CRYSTAL        CLEAR     74  67  78 SE14      29.79F
BLAINE         CLEAR     75  70  83 SE12      29.81F
LAKEVILLE      CLEAR     70  70 100 SE3       29.84S
EDEN PRAIRIE   CLEAR     73  69  87 SE9       29.81S
SOUTH ST PAUL  CLEAR     73  68  86 SE8       29.83F
LAKE ELMO      FAIR      73  70  88 S14       29.84F
$$
MNZ001>005-007-008-013>017-022>024-027-028-221200-
   Northwest Minnesota

CITY           SKY/WX    TMP DP  RH WIND       PRES   REMARKS
BEMIDJI        CLOUDY    64  64  99 NE6       29.79F
HALLOCK          N/A     55  52  88 N9        29.84S
ROSEAU         CLOUDY    55  50  82 CALM      29.83S
WARROAD        CLOUDY    57  54  88 CALM      29.83F
THIEF RVR FALL CLOUDY    63  59  88 NE8       29.80R
CROOKSTON      CLOUDY    59  57  94 N10       29.78S
FOSSTON        CLOUDY    63  61  94 CALM      29.79S
DETROIT LAKES  CLOUDY    68  64  88 CALM      29.77F
MOORHEAD       PTCLDY    66  64  94 CALM      29.74R FOG
PARK RAPIDS    CLOUDY    69  68  96 CALM      29.73R
MAHNOMEN       FAIR      65  64  98 NE7       29.74F
$$
MNZ006-009>011-018-025>026-221200-
   North Central Minnesota

CITY           SKY/WX    TMP DP  RH WIND       PRES   REMARKS
BAUDETTE       CLOUDY    60  60 100 E3        29.81F
FLAG ISLAND    CLOUDY    61  57  88 CALM      29.82S
INTL FALLS     CLOUDY    60  58  92 CALM      29.81F
WASKISH        CLOUDY    63  63 100 CALM      29.82R
BIG FORK       CLOUDY    63  61  94 CALM      29.82R
LONGVILLE      TSTM      64  64 100 SE7G38    29.88R VSB 1
GRAND RAPIDS   CLOUDY    64  63  96 S5        29.87R
CRANE LAKE     CLOUDY    55  55 100 CALM      29.82F FOG
ORR            CLOUDY    61  57  88 CALM      29.79F
COOK           CLOUDY    61  61 100 CALM      29.84S
WALKER         TSTM      66  65  98 E12G26    29.71F
$$
MNZ012-019>021-037-221200-
   Northeast Minnesota

CITY           SKY/WX    TMP DP  RH WIND       PRES   REMARKS
DULUTH         MOCLDY    59  59 100 SE6       29.86F
ELY            CLOUDY    64  64 100 S5        29.83F
HIBBING        CLOUDY    58  58 100 CALM      29.85R FOG
EVELETH        CLOUDY    63  59  87 CALM      29.86S
DULUTH HARBOR  CLOUDY    61  59  94 NE9       29.86S
TWO HARBORS    CLOUDY    63  57  82 CALM      29.85F
GRAND MARAIS     N/A     62  61  96 CALM      29.85F
$$
MNZ029>031-032-039>041-046>048-054>057-064-221200-
   West Central Minnesota

CITY           SKY/WX    TMP DP  RH WIND       PRES   REMARKS
FERGUS FALLS   CLOUDY    64  59  82 NE5       29.72S
WHEATON        PTCLDY    70  64  83 SE12      29.72F
MORRIS         PTCLDY    72  64  78 E9        29.74F
ALEXANDRIA     CLOUDY    68  61  78 SE9       29.79F
ELBOW LAKE     FAIR      66  61  84 SE8       29.73F
WADENA         CLOUDY    64  64 100 W6        29.76R
GLENWOOD       CLOUDY    70  63  78 E7        29.79F
APPLETON       PTCLDY    73  70  88 E8        29.72F FOG
BENSON         CLOUDY    73  70  88 E6        29.77F
ORTONVILLE     CLEAR     72  70  94 E10       29.72F FOG
MADISON        PTCLDY    72  72 100 NE7       29.72F FOG
WILLMAR        FAIR      72  72 100 SE7       29.77S
$$
MNZ033>034-036-042>043-049>051-058-059-221200-
   Central Minnesota

CITY           SKY/WX    TMP DP  RH WIND       PRES   REMARKS
ST CLOUD       CLOUDY    73  71  93 SE6       29.80R
SAUK CENTRE    DRIZZLE   71  64  79 NE5       29.81F
PAYNESVILLE    CLOUDY    73  70  91 S3        29.80R
AITKIN         TSTM      68  66  94 W6        29.89R
PINE RIVER     CLOUDY    64  61  88 E13       29.82F
BRAINERD       TSTM      67  66  97 E9        29.85F FOG
STAPLES        CLOUDY    63  63 100 E9G16     29.78S
LITTLE FALLS   RAIN      68  61  77 CALM      29.84R
LITCHFIELD     TSTM      73  73 100 S6        29.79S
BUFFALO        CLEAR     73  68  83 SE5       29.81R
MAPLE LAKE     CLOUDY    73  70  92 S3        29.81R
HUTCHINSON     TSTM      74  73  95 SE10G20   29.80S
$$
MNZ037-044-045-052-053-221200-
   East Central Minnesota

CITY           SKY/WX    TMP DP  RH WIND       PRES   REMARKS
PRINCETON      CLOUDY    75  70  83 SE7       29.81R
MORA           CLOUDY    70  68  94 SE7G17    29.83R THUNDER
CAMBRIDGE      CLOUDY    75  64  69 S8        29.81F THUNDER
RUSH CITY      CLOUDY    73  68  82 S5        29.82R THUNDER
MOOSE LAKE     CLOUDY    59  57  94 CALM      29.84R THUNDER
HINCKLEY       RAIN      72  70  94 S5        29.84R
CLOQUET        CLOUDY    61  57  88 E5        29.86S
MCGREGOR       CLOUDY    68  64  88 CALM      29.86R THUNDER
$$
MNZ071>073-080-081-089-090-097-098-221200-
   Southwest Minnesota

CITY           SKY/WX    TMP DP  RH WIND       PRES   REMARKS
MONTEVIDEO     CLEAR     70  70 100 E3        29.74R FOG
GRANITE FALLS  CLEAR     75  73  91 SE7       29.74F
CANBY          PTCLDY    78  72  82 S7        29.71S
MARSHALL       CLOUDY    76  72  87 S18G25    29.71F
REDWOOD FALLS  CLOUDY    75  71  87 S10       29.75F
OLIVIA         CLOUDY    73  72  94 SE7       29.75S
PIPESTONE      PTCLDY    73  72  94 S12       29.76S
WINDOM         PTCLDY    75  70  83 S13G21    29.79S
WORTHINGTON    CLEAR     75  71  87 S16       29.80R
JACKSON        PTCLDY    73  70  88 S13G20    29.82S
TRACY          PTCLDY    76  73  90 S13G20    29.75F
SLAYTON        CLEAR     74  70  85 S15G22    29.78S
$$
MNZ065>067-074>077-082>085-091>093-221200-
   South Central Minnesota

CITY           SKY/WX    TMP DP  RH WIND       PRES   REMARKS
MANKATO        CLOUDY    76  70  82 S10G18    29.82S
NEW ULM        CLOUDY    75  70  83 S10G16    29.79R
ST JAMES       CLOUDY    75  70  83 S10       29.81S
FAIRMONT       PTCLDY    75  70  84 S12       29.82S
GLENCOE        PTCLDY    75  73  93 S6        29.80R
FARIBAULT      CLEAR     73  70  88 SE9       29.84F
OWATONNA       CLEAR     73  70  88 S12       29.85F
WASECA         CLEAR     73  68  83 S9G16     29.85F
ALBERT LEA     CLEAR     75  70  83 S7        29.87S
$$
MNZ078>079-086>088-094>096-221200-
   Southeast Minnesota

CITY           SKY/WX    TMP DP  RH WIND       PRES   REMARKS
ROCHESTER      CLEAR     71  69  93 S12       29.91R
RED WING       CLEAR     73  66  78 SE8       29.86S
STANTON        CLEAR     74  69  82 S7        29.84S
DODGE CENTER   CLEAR     75  66  73 S15G22    29.88S
WINONA         CLEAR     70  68  94 CALM      29.91F
AUSTIN         CLEAR     73  68  83 S8        29.90R
PRESTON        CLEAR     72  67  85 S12G17    29.93S
$$
ABBREVIATIONS USED IN REMARKS
   TC - TEMPERATURES IN CELSIUS
  WCI - WIND CHILL INDEX
   HX - HEAT INDEX
  VSB - VISIBILITY
$$



USA.gov is the U.S. government's official web portal to all federal, state and local government web resources and services.